Theta_e
344 342 341 341 341 339 337 337 337 336 335 333 331 330 331 334 334 332 330 330 332 333 334 333 335 337 337 337 336 336 336 336 338 338 337 337 340 339 337 337 336 336 336
342 341 340 341 340 339 338 337 337 336 336 334 331 330 331 334 336 334 331 330 330 330 331 333 336 337 337 337 336 336 336 336 336 337 336 338 340 340 337 336 336 336 335
340 340 340 339 339 339 338 337 337 337 336 336 333 331 331 333 334 336 338 337 337 335 335 336 337 337 337 336 336 337 335 334 333 333 337 338 339 338 335 335 336 335 335
342 340 339 339 338 338 338 338 338 337 336 336 334 332 332 332 333 337 337 336 337 337 337 337 337 337 336 335 336 337 335 336 338 336 336 334 335 335 334 335 334 334 334
343 340 339 338 338 338 338 338 339 338 337 337 335 333 333 332 332 335 335 336 337 337 337 337 336 336 336 335 335 336 336 338 338 337 336 333 334 333 333 334 334 334 333
348 342 339 339 338 338 338 339 340 339 337 337 336 334 334 333 332 334 334 336 337 337 338 337 336 336 335 334 335 336 335 333 336 335 336 334 332 333 334 334 333 333 333
349 344 343 340 339 337 338 339 340 340 338 338 337 335 334 334 332 333 334 337 337 337 338 337 335 334 333 333 334 334 334 335 336 333 336 333 332 334 333 333 334 333 332
350 349 348 342 339 337 338 339 340 341 340 339 338 336 335 335 333 333 334 336 337 338 337 335 334 332 332 333 333 333 334 335 333 335 336 334 332 334 334 334 333 333 331
349 348 347 345 341 338 336 338 340 341 341 340 339 337 336 336 335 333 334 336 337 337 336 334 332 331 332 332 332 331 333 335 332 332 334 333 331 333 334 334 332 332 331
349 344 349 348 345 340 336 336 337 340 341 341 340 339 337 337 336 334 335 336 336 336 335 333 331 330 331 330 330 330 332 335 332 333 333 331 330 332 333 333 332 331 331
335 348 348 348 346 343 337 336 335 337 340 342 342 340 339 338 337 335 335 335 336 336 334 332 330 330 330 329 328 329 332 335 333 334 332 329 329 330 331 332 331 331 331
310 318 332 337 346 343 338 336 335 335 337 340 342 342 340 338 338 336 336 335 336 336 335 332 330 330 329 327 327 327 330 334 335 334 332 330 328 329 331 330 331 331 329
310 312 314 321 331 343 342 337 336 335 336 338 341 342 341 339 339 338 337 337 337 336 335 332 330 330 329 328 327 326 327 333 335 334 332 330 329 328 330 330 330 330 329
306 307 308 310 314 315 339 341 338 339 336 336 339 342 341 341 340 339 338 337 337 336 335 333 330 330 329 328 327 326 327 332 334 333 332 330 329 328 327 330 330 330 329
303 302 302 305 309 312 315 324 339 339 340 336 335 338 341 341 340 340 338 337 337 337 336 333 330 330 329 329 334 334 333 332 334 334 332 331 329 329 327 327 329 329 329
300 300 300 302 304 308 311 313 315 337 341 340 337 336 337 340 340 340 339 338 337 337 337 334 330 330 329 329 334 335 336 335 333 331 332 332 330 329 328 326 326 328 329
298 298 298 300 300 303 307 309 312 314 330 340 340 337 337 338 340 340 341 340 339 337 338 335 331 330 330 329 333 335 336 335 330 333 330 329 331 329 328 328 327 326 327
297 297 297 298 298 299 302 306 308 311 314 326 339 341 339 339 338 340 341 341 340 340 339 336 332 331 331 331 333 335 336 331 331 328 328 329 329 328 329 327 327 328 326
295 296 296 295 296 297 298 301 305 308 312 315 329 337 338 339 339 338 340 341 341 341 340 338 333 333 334 335 334 334 335 331 330 329 330 329 329 329 329 328 327 327 327
293 293 294 294 294 295 297 299 302 305 308 313 320 328 336 339 339 338 339 340 341 341 340 339 336 335 335 335 336 336 334 334 332 330 329 330 329 329 329 328 328 327 327
292 292 291 292 292 293 296 297 299 302 305 309 314 322 331 336 338 339 338 340 341 341 340 340 338 336 336 335 336 335 336 335 335 332 330 330 329 329 329 329 329 328 328
291 291 291 291 291 292 294 295 297 301 305 307 312 315 325 327 336 337 338 340 340 341 341 340 338 337 336 335 334 333 330 333 335 333 331 330 330 331 330 330 329 330 330
291 290 290 290 291 292 293 295 297 300 303 308 311 313 322 328 335 335 337 338 339 340 340 340 339 338 336 336 335 333 328 332 327 333 332 331 331 332 332 331 330 329 331
290 290 290 290 291 291 292 294 295 299 301 305 306 311 313 317 324 329 336 337 339 340 340 340 340 339 337 336 334 335 334 331 329 329 331 332 332 331 332 332 331 330 330
290 289 289 290 290 290 291 293 294 297 299 303 306 310 312 314 322 329 331 333 332 333 339 340 339 339 337 336 336 334 332 330 330 324 329 330 333 332 332 333 332 331 330
290 289 289 290 290 290 291 291 293 294 296 301 303 306 312 315 318 325 329 334 333 329 337 339 339 339 338 336 336 335 334 332 330 328 325 324 328 333 333 333 333 332 332
Wind_Speed
18 23 22 20 20 21 22 21 20 18 17 15 14 13 15 17 19 20 21 21 20 18 17 13 11 11 12 12 11 10 12 13 14 17 18 18 19 17 15 15 15 16 16
21 22 20 18 18 19 20 20 20 19 18 16 15 15 15 16 17 18 18 18 17 16 14 12 11 11 12 11 11 12 15 15 15 17 17 17 16 14 14 14 15 17 15
18 21 20 18 17 17 18 18 19 19 19 17 16 16 16 16 16 16 15 14 14 14 14 12 11 11 11 11 12 15 16 15 15 12 14 15 15 14 14 13 14 14 14
15 21 20 18 16 16 16 17 18 19 19 17 17 16 16 16 15 15 15 13 11 11 12 12 12 10 10 12 13 16 16 16 13 12 13 11 12 12 12 12 12 13 13
13 19 19 17 15 15 16 16 17 18 19 19 18 17 16 16 15 14 14 13 12 11 11 11 12 10 12 12 13 13 15 14 10 8 11 10 11 11 12 13 14 15 15
9 13 15 15 16 15 15 16 17 18 20 19 19 18 18 16 16 15 14 14 13 11 10 10 11 11 12 12 12 11 11 9 9 8 10 11 9 13 14 15 15 15 16
11 10 10 16 18 16 15 16 17 18 19 19 19 18 18 17 17 16 16 14 13 12 10 10 11 12 13 13 12 11 9 6 4 11 14 11 10 13 15 15 16 17 16
9 9 8 13 16 15 14 14 15 17 18 20 19 19 19 18 18 18 17 16 13 13 12 11 12 11 12 14 13 13 9 6 8 16 14 11 11 11 14 15 16 17 16
5 6 6 8 13 15 15 15 15 17 18 19 19 19 19 19 18 18 18 17 16 14 12 13 12 12 12 14 13 13 9 8 11 10 11 12 12 12 14 16 16 17 16
2 4 5 7 10 15 19 17 16 17 19 19 20 20 20 19 19 19 19 18 18 16 14 13 13 13 13 13 13 13 11 10 14 13 12 13 13 13 15 16 16 16 16
6 5 8 12 12 14 19 20 19 18 19 20 21 22 21 22 21 21 21 20 19 18 16 15 14 14 13 13 13 13 12 12 17 14 15 15 13 13 15 16 16 17 19
23 24 17 11 13 15 19 22 22 22 21 23 24 24 25 25 25 24 23 22 20 18 17 16 16 16 15 14 13 13 12 11 18 15 17 16 14 16 17 16 16 18 21
26 32 31 24 21 19 20 24 23 24 24 24 26 26 27 27 27 26 25 24 22 21 20 19 19 19 17 16 15 14 12 10 15 18 17 17 15 13 18 18 19 21 21
32 30 32 32 31 23 23 23 24 28 29 28 28 30 30 30 30 30 29 28 27 26 24 23 23 21 18 16 15 14 14 12 11 18 18 17 14 11 13 19 20 22 21
39 38 38 35 32 32 25 21 24 32 34 36 33 33 34 35 35 34 33 32 31 29 28 27 26 24 22 20 18 16 13 15 13 17 18 14 18 13 11 16 20 22 22
35 38 39 36 35 33 30 27 25 26 37 37 38 37 37 38 39 38 37 36 35 33 30 29 29 27 25 23 22 19 18 15 16 15 19 18 18 17 13 11 15 18 22
32 35 39 36 39 35 35 34 32 27 23 38 38 40 41 42 43 42 40 40 38 35 33 32 30 28 26 26 25 23 19 19 16 20 18 16 19 20 17 13 13 16 19
33 37 42 45 41 40 37 36 35 33 29 24 37 38 37 39 45 45 40 40 41 38 37 35 33 31 30 29 29 27 23 21 20 18 17 18 19 20 17 17 17 14 18
32 35 37 40 42 44 38 35 35 36 32 28 26 37 38 42 43 49 41 38 41 41 40 38 37 36 33 31 30 29 28 26 23 22 21 20 20 19 21 20 17 17 17
29 30 31 35 40 42 40 31 29 36 35 31 26 29 39 45 46 49 42 40 43 41 39 40 37 38 37 35 33 32 31 31 26 25 25 25 23 23 20 21 21 22 22
36 37 37 36 37 39 35 36 35 30 38 40 33 30 34 43 44 45 43 42 46 42 40 42 40 40 37 38 30 26 22 19 29 28 27 30 28 29 27 26 24 26 25
33 38 42 41 35 34 32 35 33 31 27 37 37 32 37 39 47 44 44 42 46 44 39 42 42 32 31 42 20 17 4 10 23 29 28 30 28 28 28 29 28 27 27
33 36 36 35 38 34 33 33 34 31 27 23 29 30 27 39 41 46 46 47 47 45 42 44 44 38 31 38 39 14 3 7 4 20 33 32 31 30 31 32 33 30 28
32 34 33 33 33 32 33 32 31 30 29 26 30 35 38 31 41 45 46 47 54 45 46 46 45 44 36 31 31 39 23 12 4 1 16 33 36 37 35 33 33 31 31
27 29 30 31 33 33 32 32 32 30 31 31 28 30 37 35 35 43 40 40 42 59 50 45 42 43 41 36 35 24 24 19 15 3 3 5 20 34 40 36 33 34 33
27 31 31 32 33 35 35 35 32 32 34 31 27 29 29 32 31 36 33 32 42 39 28 38 42 43 43 38 35 31 32 20 10 5 3 2 4 16 27 32 36 36 33
Wind_Direction
170 172 168 167 160 154 151 151 152 152 148 138 130 126 121 121 122 124 128 130 135 138 134 128 120 113 110 111 115 124 125 123 120 122 123 120 118 118 121 125 125 122 125
177 169 169 170 168 161 157 156 157 158 155 148 142 137 132 129 127 126 129 131 136 138 134 130 125 119 113 112 119 125 122 124 125 120 120 121 117 118 121 126 123 127 127
176 174 171 173 175 170 166 163 162 163 161 156 153 149 143 140 137 136 135 134 137 137 135 134 125 125 116 120 126 121 123 124 119 122 127 124 123 123 127 128 125 125 124
184 180 177 176 179 180 177 173 169 169 167 164 160 157 153 150 148 145 142 138 140 141 135 136 133 128 123 124 124 128 133 130 121 129 130 131 133 132 128 131 128 125 122
179 184 183 180 185 189 188 182 177 177 176 172 170 165 162 159 157 155 148 141 140 142 141 141 140 136 132 132 131 138 142 143 137 139 138 139 142 140 137 137 134 133 132
172 186 190 193 193 196 196 190 189 186 184 181 179 174 171 168 165 163 160 152 151 151 153 151 145 145 137 138 139 145 151 154 165 164 152 141 153 147 142 142 139 139 138
143 170 198 216 202 198 200 198 197 193 191 189 188 183 179 175 174 171 168 166 163 164 164 162 156 153 147 148 150 150 153 151 182 174 158 147 156 150 144 142 143 143 146
144 169 186 205 209 207 207 208 206 203 199 197 196 192 189 184 181 178 175 175 177 174 171 168 166 162 155 153 154 151 150 132 147 138 157 153 156 160 147 147 147 150 150
141 176 192 200 210 214 217 215 214 212 207 205 204 201 197 193 189 185 183 181 181 183 180 175 173 171 163 159 160 154 156 157 159 154 162 165 166 166 158 155 158 160 160
127 336 249 230 227 225 219 220 220 219 215 212 211 209 205 201 198 193 190 188 187 187 187 185 180 177 172 167 163 163 154 163 165 172 172 165 165 172 165 166 165 164 164
22 304 294 267 249 245 231 220 217 221 222 219 218 215 209 206 203 200 199 196 196 194 192 191 188 182 180 176 171 170 154 161 177 180 174 169 172 176 175 175 172 170 170
26 24 348 329 276 262 241 229 222 219 222 221 220 217 212 211 208 206 204 203 201 200 199 195 192 188 186 183 181 178 165 152 177 184 175 175 177 182 181 179 178 179 177
21 25 23 19 331 290 260 247 231 225 223 225 222 220 219 215 213 210 206 204 203 203 200 198 195 195 192 187 187 188 180 172 184 189 185 182 175 188 185 183 184 185 185
12 11 7 8 14 5 291 252 250 246 228 224 224 221 218 221 218 213 209 207 206 206 204 203 201 198 196 195 194 193 190 189 191 197 195 186 189 192 199 187 189 189 192
5 359 359 358 359 360 2 349 280 251 246 233 223 223 222 219 222 219 214 212 211 209 208 206 204 201 199 198 195 195 201 198 214 203 205 198 195 196 206 203 196 197 199
357 355 356 359 350 345 342 340 339 284 252 241 232 226 222 224 223 223 219 215 216 212 212 212 208 205 204 204 208 207 215 217 220 210 209 208 206 202 204 204 212 210 206
356 352 356 355 346 341 331 328 325 325 299 260 241 231 228 223 225 225 221 217 216 214 215 213 214 210 210 208 211 216 224 219 215 217 219 216 210 210 210 210 214 218 221
356 356 353 348 348 344 333 320 318 314 317 296 252 240 240 236 229 223 219 217 217 215 214 214 212 212 212 213 211 215 218 212 223 221 225 222 222 220 215 222 217 221 224
360 355 352 351 347 340 341 330 317 311 308 307 285 257 247 243 233 228 215 214 216 216 214 214 213 211 210 211 213 214 217 215 219 224 224 228 229 225 229 228 228 226 227
359 357 351 348 346 344 338 335 328 315 310 302 295 282 247 243 237 232 216 211 213 213 211 211 209 211 213 213 217 220 223 228 221 222 219 224 223 227 231 233 234 226 228
358 356 353 348 346 344 340 334 329 321 316 309 302 282 269 248 243 237 227 211 210 209 208 209 209 210 212 214 209 212 215 220 217 221 227 222 222 227 233 232 235 232 229
352 351 350 345 343 341 334 327 321 311 307 305 303 291 273 265 249 239 236 218 212 207 205 203 205 208 208 208 198 178 173 220 220 221 224 222 228 225 228 232 234 234 234
352 351 346 341 339 338 333 329 326 320 313 312 310 302 290 272 261 249 237 228 232 207 208 204 203 207 208 210 207 192 138 215 152 217 221 221 226 226 231 234 234 234 233
347 347 342 339 339 337 334 329 325 318 314 310 305 300 296 281 269 260 247 234 226 212 208 207 202 206 207 207 205 207 205 176 175 179 221 225 230 233 233 233 234 237 240
346 346 343 344 342 341 336 332 326 321 318 312 306 300 302 294 274 266 256 249 243 226 218 207 203 203 205 205 203 199 196 186 183 138 184 202 225 234 236 230 232 237 238
350 352 347 346 346 347 342 335 328 324 323 313 317 308 305 301 288 277 271 261 250 252 235 212 205 203 204 206 205 204 203 193 186 156 136 163 200 214 227 229 234 238 239